Location: Harwich
(41.7160°N, 69.9939°W)
Time: 08:51:13
(UTC+01:00)

A-11 Canister half - Pass Details

Date: 08 December 2023
Orbit: 1526 x 1682 km, 47.3° (Epoch: 28 February)

Event Time Altitude Azimuth Distance (km) Brightness Sun altitude
Rises 02:20:52 0° 270° (W) 4,932 12.4 -46.1°
Reaches altitude 10° 02:24:07 10° 273° (W) 3,944 11.7 -46.7°
Enters shadow 02:30:59 46° 295° (WNW) 2,138 9.8 -47.9°
